Location: Unspecified
(17.6330°N, 0.0000°E)
Time: 17:11:19
(UTC+00:00)

A-11 Canister half - Pass Details

Date: 21 June 2019
Orbit: 1514 x 1686 km, 47.2° (Epoch: 17 August)

Event Time Altitude Azimuth Distance (km) Brightness Sun altitude
Rises 11:47:38 0° 280° (W) 4,899 11.6 83.3°
Reaches altitude 10° 11:52:46 10° 301° (WNW) 3,883 11.3 83.8°
Maximum altitude 11:58:09 16° 335° (NNW) 3,416 11.1 84.1°
Drops below altitude 10° 12:03:27 10° 9° (N) 3,809 11.3 84.2°
Sets 12:08:27 0° 30° (NNE) 4,757 11.6 84.0°
